Regional Weather Roundup
Issued by NWS Wakefield, VA

Home | Current Version | Previous Version | Text Only | Print | Product List | Glossary Off
Versions: 1 2 3 4 5 6 7 8 9 10 11 12 13 14 15 16 17 18 19 20 21 22 23 24 25 26 27 28 29 30 31 32 33 34 35 36 37 38 39 40 41 42 43 44 45 46 47 48 49 50

000
ASUS41 KAKQ 030115
RWRAKQ

REGIONAL WEATHER ROUNDUP
NATIONAL WEATHER SERVICE WAKEFIELD VA
900 PM EDT WED SEP 02 2015

Note: "fair" indicates few or no clouds below 12,000 feet with no
significant weather and/or obstructions to visibility. * = Denotes
station may not report precipitation (e.g., rain,snow,etc.),
thunder or fog.

VAZ042-051-052>054-056-030200-
NORTHERN VIRGINIA

CITY           SKY/WX    TMP DP  RH WIND       PRES   REMARKS
WASH NATIONAL  MOCLDY    83  68  60 SW5       29.94R
DULLES         PTCLDY    77  69  76 CALM      29.95S
FORT BELVOIR   PTCLDY    75  71  86 N1        29.95R
QUANTICO       PTCLDY    78  67  68 NW9       29.95S
FREDERICKSBRG* MOCLDY    78  69  73 SW6       29.95S
STAFFORD*      MOCLDY    74  65  73 CALM      30.00S
WARRENTON      PTCLDY    76  69  80 W3        29.97S
CULPEPER*      PTCLDY    73  67  79 CALM      29.98S
MANASSAS*      CLEAR     75  70  83 S7        29.96
LEESBURG*      CLEAR     77  70  78 W5        29.96R
WINCHESTER     CLEAR     72  66  83 CALM      29.98R
FRONT ROYAL*   FAIR      68  64  88 S9        29.98S
LURAY*         FAIR      64  64 100 CALM      30.01S FOG
$$

VAZ048-049-060>072-079>083-030200-
CENTRAL AND SOUTH CENTRAL VIRGINIA

CITY           SKY/WX    TMP DP  RH WIND       PRES   REMARKS
RICHMOND       LGT RAIN  73  69  87 S3        29.95F FOG
CHESTERFIELD*  CLOUDY    72  61  68 S3        29.97F THUNDER
PETERSBURG*    LGT RAIN  72  72  99 CALM      29.98F
HANOVER        CLOUDY    74  68  81 CALM      29.97F
TAPPAHANNOCK*  CLOUDY    75  70  85 SW5       29.96F
QUINTON*       FAIR      73  71  94 W6        29.96F
CHARLOTTSVILLE CLEAR     73  62  68 S3        29.99F
GORDONSVILLE*  FAIR      71  65  81 W5        29.98S
ORANGE*        CLEAR     72  68  88 S3        29.99S
LOUISA*        PTCLDY    73  66  78 CALM      29.97F
BUMPASS*       FAIR      70  68  96 MISG      29.97F
FARMVILLE*     MOCLDY    71  71 100 CALM      29.97S
CREWE*         FAIR     N/A N/A N/A CALM      29.97F
FORT PICKETT*  FAIR      69  67  95 S6        30.00R
CHASE CITY*    CLOUDY    72  72 100 CALM      30.00S
CLARKSVILLE*   FAIR      72  70  94 N5        30.00R
SOUTH HILL*    CLOUDY    69  69  98 CALM      30.07R
LAWRENCEVILLE* CLOUDY    72  70  94 W6        30.02R
EMPORIA*       MOCLDY    70  70 100 NW5       30.00R
$$

VAZ088>098-030200-
SOUTHEAST VIRGINIA

CITY           SKY/WX    TMP DP  RH WIND       PRES   REMARKS
NORFOLK        MOCLDY    72  68  87 S5        29.94F
VIRGINIA BEACH MOCLDY    73  66  78 W5        29.94R
NORFOLK NAVAL  MOCLDY    71  69  93 CALM      29.95F
WEST POINT*    CLOUDY    77  74  90 W9        29.98R
SALUDA*        FAIR      75  73  92 SW3       29.95R
NEWPORT NEWS   MOCLDY    73  69  87 CALM      29.94F
LANGLEY AFB    MOCLDY    71  69  95 W2        29.93F
FORT EUSTIS    MOCLDY    73  73 100 VRB1      29.93S
WILLIAMSBURG*  CLOUDY    75  73  94 W8G28     29.98R
HR EXEC AP*      N/A     70  66  88 S3        29.97S
FRANKLIN*      MOCLDY    71  69  93 NW3       29.98R
WAKEFIELD      CLOUDY    76  68  76 W6        29.99R
$$

VAZ020-022-025-037-045-030200-
WEST CENTRAL AND SOUTHWEST VIRGINIA

CITY           SKY/WX    TMP DP  RH WIND       PRES   REMARKS
STAUNTON*      CLEAR     73  66  80 CALM      30.05S
WAYNESBORO*    FAIR      69  67  92 CALM      30.05R
HOT SPRINGS VA PTCLDY    69  54  57 N6        30.15S
LYNCHBURG      PTCLDY    71  63  75 E3        30.02R
DANVILLE       MOCLDY    74  66  76 NE8       30.00R
SOUTH BOSTON*  MOCLDY    70  68  95 SW8       30.01R
MARTINSVILLE   CLEAR     73  73 100 CALM      30.02R
ROANOKE        CLEAR     77  63  61 CALM      30.04R
BLACKSBURG     PTCLDY    77  65  66 NE3       30.11R
DUBLIN*        CLOUDY    74  67  76 CALM      30.10R
MARION*        CLEAR     71  65  83 CALM      30.14R
HILLSVILLE*    CLEAR     74  63  68 N5        30.10S
RICHLANDS*     FAIR      73  31  20 CALM      30.13R
WISE*          CLEAR     73  59  60 CALM      30.15R
ABINGDON*      CLEAR     74  65  74 CALM      30.09R
$$

MDZ021>025-VAZ099-100-030200-
SOUTHERN MARYLAND AND THE DELMARVA PENINSULA

CITY           SKY/WX    TMP DP  RH WIND       PRES   REMARKS
PATUXENT RIVER MOCLDY    78  70  76 W9        29.93S
BAY BRIDGE APT   N/A     79  66  65 CALM      29.93R
LEONARDTOWN    NOT AVBL
DOVER          PTCLDY    78  72  83 S3        29.90S
GEORGETOWN     PTCLDY    77  69  76 S3        29.93S
EASTON         MOCLDY    81  73  78 NW5       29.97
CAMBRIDGE      PTCLDY    79  70  73 CALM      29.93R
SALISBURY      PTCLDY    76  73  91 SW5       29.93R
OCEAN CITY     MOCLDY    75  67  76 CALM      29.93R
WALLOPS ISLAND MOCLDY    78  76  93 W7        29.93S
ACCOMACK*      MOCLDY   N/A N/A N/A CALM      29.94R
$$

NCZ012>017-030>032-030200-
NORTH CENTRAL AND EASTERN NORTH CAROLINA

CITY           SKY/WX    TMP DP  RH WIND       PRES   REMARKS
ROANOKE RAPIDS FAIR      72  64  78 E7        29.95R
RALEIGH        PTCLDY    78  70  76 CALM      29.96R
ELIZABETH CITY LGT RAIN  71  68  90 W5        29.96S
AHOSKIE*       HVY RAIN  69  67  93 SE7       29.98F
EDENTON*       MOCLDY    73  66  78 E10       29.97F
CURRITUCK*     LGT RAIN  71  68  88 W5        29.96R
KILL DEVIL HLS MOCLDY    79  72  80 CALM      29.95R
MANTEO         MOCLDY    80  74  81 SW9       29.95S
CAPE HATTERAS  CLEAR     75  71  87 CALM      29.97R
TARBORO*       MOCLDY    78  73  84 N13G20    29.96R
GOLDSBORO      NOT AVBL
WASHINGTON     CLEAR     78  72  80 SE5       29.95R
GREENVILLE     CLEAR     79  73  83 CALM      29.96S
NEW BERN       CLEAR     79  74  84 S5        29.97R
WILMINGTON     PTCLDY    81  73  76 SW7       29.96R
$$

VAZ048-030200-
ELSEWHERE

CITY           SKY/WX    TMP DP  RH WIND       PRES   REMARKS
HARRISBURG PA  PTCLDY    78  68  71 NW7       29.92R
BALTIMORE      MOCLDY    79  64  60 CALM      29.92S
ANNAPOLIS      MOCLDY    79  71  76 CALM      29.92R
ANDREWS AFB    PTCLDY    82  67  60 W7        29.94R
PHILADELPHIA   PTCLDY    85  63  47 SW5       29.90S
HENDERSON NC   MOCLDY    75  65  70 N10G16    30.01R
GREENSBORO     CLOUDY    83  67  58 NW7       29.99R
ROCKY MOUNT    PTCLDY    78  71  79 S3        29.94S
$$

VAZ100-030200-
MARINE

STATION/POSITION TIME  TEMP    WIND        PRES    WAVE   SWELL
                       AIR SEA DIR/SP/G            HT/PER HT/PER
                 (UTC) (F)     (DEG/KT/KT) (MB)    (FT/S) (FT/S)
BRANDYWINE LGT   0000   77 77  190/ 11/ 13 1013.2F
CAPE MAY NJ      0000   76 80  170/  4/  5 1012.8F
LEWES DE         0000   78 77  180/  5/  7 1013.0S
15NM E FENWICK I 0050   80 80  210/  6/  8 1013.7R   1/13   2/13
OCEAN-CITY-INLET 0000   80 79  210/  5/  7 1012.4F
GOOSES REEF MD   0100   82 80  260/ 12/ 14 1014.4R
COVE POINT MD    0000   81     270/ 12/ 14 1014.0R
SOLOMONS ISLAND  0000      81                N/A
BISHOPS HEAD MD  0000   82 83  230/  7/  8 1012.5R
PINEY POINT MD   0005          310/  5/  6   N/A
POTOMAC MD       0100   79 80  250/ 10/ 14 1012.7R   1
CAMBRIDGE MD     0000   83 81  240/  5/  6 1012.3R
LEWISETTA VA     0000   79 82  240/  6/  8 1013.4R
RAPPAHANNOCK LGT 0000          250/  7/  9 1014.0F
STINGRAY PT      0100   79 81  250/ 10/ 14 1014.2R   0
YORK RVR RNG VA  0000   76     230/ 11/ 13 1013.5R
YORKTOWN VA      0000   75 81  200/  4/  7 1013.8R
JAMESTOWN VA     0100   78 82  310/ 12/ 17   N/A
DOMINION TERM VA 0000   76     220/  2/  3 1013.7F
KIPTOPEKE VA     0000      80  250/ 11/ 12   N/A
CHES BAY BRIDGE  0000   74 79  200/ 11/ 14 1013.3F
CAPE HENRY VA    0000   74     220/  7/ 11   N/A
CHESAPEAKE LGHT  0000   76     240/ 10/ 11 1014.5F
WILLOUBY STN VA  0000   75     320/  2/  3 1014.7F
CAPE HENRY BUOY  0028      80                N/A     2/13
1ST LANDING BUOY 0100      79              1013.5F   1/ 3
CAPE CHARLES BUO 0026      79                N/A     2/13   2/13
OFFSHORE WE BUOY 0011      80                N/A     2/ 3   2/13
64NM E OF VA BCH 0050   80 80  230/ 10/ 12 1013.6S   2/ 9   2/ 9
DUCK PIER NC     0000   81 78  310/ 11/ 15 1013.4R
44100 DUCK FRF   0024      80                N/A     1/13
44056 DUCK FRF   0011      81                N/A     1/13
OREGON INLET NC  0000   81 82  200/  5/  6 1014.1R
HATTERAS NC      0000   81 83  230/  2/  3 1014.2R
DIAMOND SHLS NC  0050   81 86  330/  2/  4 1014.8R   2/ 8   2/ 8
CAPE LOOKOUT NC  0100   81     230/  4/  5 1014.5R
$$


USA.gov is the U.S. government's official web portal to all federal, state and local government web resources and services.